Weather History for Cut Bank, MT

Change the Weather History Date:

Sunday, December 9, 2012

  Actual Average Record
Temperature  
Mean Temperature 10 °F 23 °F  
Max Temperature 27 °F 33 °F 64 °F (1925)
Min Temperature -8 °F 13 °F -32 °F (1977)
Degree Days  
Heating Degree Days 55 42  
Month to date heating degree days 317 372  
Since 1 July heating degree days 2457 2635  
Cooling Degree Days 0 0  
Month to date cooling degree days 0 0  
Year to date cooling degree days 210 162  
Moisture  
Dew Point 4 °F    
Average Humidity 77    
Maximum Humidity 95    
Minimum Humidity 59    
Precipitation  
Precipitation 0.00 in 0.01 in 0.32 in (1929)
Month to date precipitation 0.05 0.07  
Year to date precipitation 9.04 10.75  
Snow  
Snow 0.00 in - - ()
Snow Depth 2.00 in    
Sea Level Pressure  
Sea Level Pressure 30.19 in    
Wind  
Wind Speed 18 mph (WSW)    
Max Wind Speed 43 mph    
Max Gust Speed 52 mph    
T = Trace of Precipitation, MM = Missing Value Source: NWS Daily Summary

Daily Weather History Graph

Daily Weather History Graph

Search for Another Location

Airport:

Trip Planner

Search our weather history database for the weather conditions in past years. The results will help you decide how hot, cold, wet, or windy it might be!

Date:

Astronomy

Dec. 09, 2012 Rise Set
Actual Time 8:10 AM MST 4:33 PM MST
Civil Twilight 7:33 AM MST 5:10 PM MST
Nautical Twilight 6:53 AM MST 5:50 PM MST
Astronomical Twilight 6:15 AM MST 6:28 PM MST
Moon 3:32 AM MST (12/9) 1:56 PM MST (12/9)
Length of Visible Light 9h 36m
Length of Day
8h 23m
Waning Crescent, 18% of the Moon is Illuminated
Dec 9
Waning Crescent
Dec 13
New
Dec 19
First Quarter
Dec 28
Full
Jan 4
Last Quarter

Hourly Weather History & Observations

Time (MST) Temp. Windchill Dew Point Humidity Pressure Visibility Wind Dir Wind Speed Gust Speed Precip Events Conditions
12:23 AM -0.4 °F - -2.2 °F 92% 30.17 in - Calm Calm - N/A   Scattered Clouds
12:56 AM -0.9 °F - -4.0 °F 87% 30.43 in - Calm Calm - N/A   Clear
1:56 AM -4.0 °F -12.4 °F -6.0 °F 91% 30.43 in - West 3.5 mph - N/A   Clear
2:56 AM -2.9 °F -13.3 °F -7.1 °F 82% 30.43 in - WSW 4.6 mph - N/A   Clear
3:56 AM -2.9 °F -15.0 °F -7.1 °F 82% 30.43 in - SW 5.8 mph - N/A   Clear
4:56 AM -7.1 °F - -11.0 °F 83% 30.45 in - Calm Calm - N/A   Clear
5:56 AM -6.0 °F - -9.0 °F 87% 30.45 in - Calm Calm - N/A   Clear
6:56 AM -7.1 °F - -9.9 °F 87% 30.45 in - Calm Calm - N/A   Clear
7:56 AM -6.0 °F - -8.0 °F 91% 30.43 in - Calm Calm - N/A   Clear
8:56 AM -6.0 °F - -9.0 °F 87% 30.40 in - Calm Calm - N/A   Clear
9:56 AM -0.0 °F -13.0 °F -2.9 °F 88% 30.34 in - SE 6.9 mph - N/A   Clear
10:56 AM 7.0 °F -1.7 °F 3.0 °F 84% 30.31 in - SSW 4.6 mph - N/A   Clear
11:56 AM 19.9 °F 2.8 °F 12.0 °F 71% 30.22 in - SW 24.2 mph 29.9 mph N/A   Clear
12:56 PM 23.0 °F 4.9 °F 10.9 °F 60% 30.15 in - WSW 32.2 mph 42.6 mph N/A   Mostly Cloudy
1:56 PM 23.0 °F 4.9 °F 12.0 °F 63% 30.11 in - WSW 32.2 mph 35.7 mph N/A   Mostly Cloudy
2:56 PM 21.9 °F 3.9 °F 12.0 °F 66% 30.05 in - WSW 29.9 mph 41.4 mph N/A   Mostly Cloudy
3:56 PM 21.9 °F 3.4 °F 10.9 °F 63% 30.03 in - WSW 32.2 mph 40.3 mph N/A   Clear
4:56 PM 21.9 °F 2.2 °F 12.0 °F 66% 30.01 in - WSW 38.0 mph 49.5 mph N/A   Clear
5:56 PM 21.9 °F 3.9 °F 12.9 °F 68% 29.99 in - West 29.9 mph 36.8 mph N/A   Clear
6:56 PM 23.0 °F 4.9 °F 12.2 °F 63% 29.78 in - West 32.2 mph 42.6 mph N/A   Clear
7:56 PM 24.1 °F 6.9 °F 12.9 °F 62% 30.00 in - West 29.9 mph 40.3 mph N/A   Clear
8:56 PM 25.0 °F 7.3 °F 12.9 °F 60% 29.98 in - West 33.4 mph 43.7 mph N/A   Clear
9:56 PM 27.0 °F 8.8 °F 15.1 °F 61% 29.92 in - West 40.3 mph 49.5 mph N/A   Mostly Cloudy
10:56 PM 25.0 °F 7.6 °F 15.1 °F 66% 29.91 in - West 32.2 mph 41.4 mph N/A   Clear
11:56 PM 25.0 °F 8.4 °F 15.1 °F 66% 29.88 in - West 28.8 mph 36.8 mph N/A   Clear